Torna al catalogo

COSMOS 839 DEB

AttivoLEO
NORAD 13946·DEBRIS·🇷🇺 Russia

Lanciato Jul 8, 1976 da Plesetsk Cosmodrome

Loading…

Prossimi Passaggi (prossime 24 ore)

TLE

AggiornatoSource: Space-Track

Epoca: Sep 14, 2026, 09:13 UTC

1 13946U 76067BE  26257.38449103  .00000997  00000-0  30652-2 0  9996
2 13946  66.0673  38.3590 0651313 248.4286 133.6514 12.52505893983917

Traccia COSMOS 839 DEB in tempo reale con AllMySat

Download on the App Store